Time,TemperatureF,DewpointF,PressureIn,WindDirection,WindDirectionDegrees,WindSpeedMPH,WindSpeedGustMPH,Humidity,HourlyPrecipIn,Conditions,Clouds,dailyrainin,SolarRadiationWatts/m^2,SoftwareType,DateUTC
2013-04-10 00:02:00,13.0,8.0,-100.00,WSW,245,8.0,9.0,81,0.00,,,0.26,0.000000,,2013-04-10 06:02:00,
2013-04-10 00:12:00,13.0,8.0,-100.00,WSW,245,8.0,9.0,81,0.00,,,0.26,0.000000,,2013-04-10 06:12:00,
2013-04-10 00:21:00,13.0,8.0,-100.00,WSW,245,8.0,9.0,81,0.00,,,0.26,0.000000,,2013-04-10 06:21:00,
2013-04-10 00:22:00,13.0,8.0,-100.00,WSW,245,9.0,12.0,81,0.00,,,0.26,0.000000,,2013-04-10 06:22:00,
2013-04-10 00:42:00,13.0,8.0,-100.00,WSW,245,9.0,12.0,81,0.00,,,0.26,0.000000,,2013-04-10 06:42:00,
2013-04-10 00:52:00,13.0,8.0,-100.00,WSW,245,9.0,12.0,81,0.00,,,0.26,0.000000,,2013-04-10 06:52:00,
2013-04-10 01:02:00,13.0,8.0,-100.00,WSW,245,9.0,12.0,81,0.00,,,0.26,0.000000,,2013-04-10 07:02:00,
2013-04-10 01:12:00,13.0,8.0,-100.00,WSW,245,9.0,12.0,81,0.00,,,0.26,0.000000,,2013-04-10 07:12:00,
2013-04-10 01:43:00,11.0,7.0,-100.00,WSW,243,3.0,9.0,82,0.00,,,0.26,0.000000,,2013-04-10 07:43:00,
2013-04-10 01:52:00,11.0,7.0,-100.00,WSW,243,3.0,9.0,82,0.00,,,0.26,0.000000,,2013-04-10 07:52:00,
2013-04-10 02:02:00,11.0,7.0,-100.00,WSW,243,3.0,9.0,82,0.00,,,0.26,0.000000,,2013-04-10 08:02:00,
2013-04-10 02:11:00,11.0,7.0,-100.00,WSW,243,3.0,9.0,82,0.00,,,0.26,0.000000,,2013-04-10 08:11:00,
2013-04-10 02:21:00,11.0,7.0,-100.00,WSW,243,3.0,9.0,82,0.00,,,0.26,0.000000,,2013-04-10 08:21:00,
2013-04-10 02:42:00,12.0,7.0,-100.00,West,259,5.0,9.0,81,0.00,,,0.26,0.000000,,2013-04-10 08:42:00,
2013-04-10 02:52:00,12.0,7.0,-100.00,West,259,5.0,9.0,81,0.00,,,0.26,0.000000,,2013-04-10 08:52:00,
2013-04-10 03:02:00,12.0,7.0,-100.00,West,259,5.0,9.0,81,0.00,,,0.26,0.000000,,2013-04-10 09:02:00,
2013-04-10 03:12:00,12.0,7.0,-100.00,West,259,5.0,9.0,81,0.00,,,0.26,0.000000,,2013-04-10 09:12:00,
2013-04-10 03:21:00,12.0,7.0,-100.00,West,259,5.0,9.0,81,0.00,,,0.26,0.000000,,2013-04-10 09:21:00,
2013-04-10 03:22:00,12.0,8.0,-100.00,WSW,243,5.0,7.0,82,0.00,,,0.26,0.000000,,2013-04-10 09:22:00,
2013-04-10 03:43:00,12.0,8.0,-100.00,WSW,243,5.0,7.0,82,0.00,,,0.26,0.000000,,2013-04-10 09:43:00,
2013-04-10 03:53:00,12.0,8.0,-100.00,WSW,243,5.0,7.0,82,0.00,,,0.26,0.000000,,2013-04-10 09:53:00,
2013-04-10 04:02:00,12.0,8.0,-100.00,WSW,243,5.0,7.0,82,0.00,,,0.26,0.000000,,2013-04-10 10:02:00,
2013-04-10 04:12:00,12.0,8.0,-100.00,WSW,243,5.0,7.0,82,0.00,,,0.26,0.000000,,2013-04-10 10:12:00,
2013-04-10 04:22:00,12.0,7.0,-100.00,WSW,243,4.0,7.0,81,0.00,,,0.26,0.000000,,2013-04-10 10:22:00,
2013-04-10 04:43:00,12.0,7.0,-100.00,WSW,243,4.0,7.0,81,0.00,,,0.26,0.000000,,2013-04-10 10:43:00,
2013-04-10 04:52:00,12.0,7.0,-100.00,WSW,243,4.0,7.0,81,0.00,,,0.26,0.000000,,2013-04-10 10:52:00,
2013-04-10 05:02:00,12.0,7.0,-100.00,WSW,243,4.0,7.0,81,0.00,,,0.26,0.000000,,2013-04-10 11:02:00,
2013-04-10 05:12:00,12.0,7.0,-100.00,WSW,243,4.0,7.0,81,0.00,,,0.26,0.000000,,2013-04-10 11:12:00,
2013-04-10 07:43:00,17.0,12.0,-100.00,West,259,2.0,7.0,79,-99.99,,,0.26,24.000000,,2013-04-10 13:43:00,
2013-04-10 07:53:00,17.0,12.0,-100.00,West,259,2.0,7.0,79,-99.99,,,0.26,24.000000,,2013-04-10 13:53:00,
2013-04-10 08:02:00,17.0,12.0,-100.00,West,259,2.0,7.0,79,-99.99,,,0.26,24.000000,,2013-04-10 14:02:00,
2013-04-10 08:12:00,17.0,12.0,-100.00,West,259,2.0,7.0,79,-99.99,,,0.26,24.000000,,2013-04-10 14:12:00,
2013-04-10 08:21:00,17.0,12.0,-100.00,West,259,2.0,7.0,79,-99.99,,,0.26,24.000000,,2013-04-10 14:21:00,
2013-04-10 08:42:00,28.0,14.0,-100.00,North,4,0.0,5.0,56,0.00,,,0.26,236.000000,,2013-04-10 14:42:00,
2013-04-10 09:22:00,30.0,17.0,-100.00,NNE,18,1.0,3.0,58,0.00,,,0.26,443.000000,,2013-04-10 15:22:00,
2013-04-10 09:52:00,30.0,17.0,-100.00,NNE,18,1.0,3.0,58,0.00,,,0.26,443.000000,,2013-04-10 15:52:00,
2013-04-10 10:02:00,30.0,17.0,-100.00,NNE,18,1.0,3.0,58,0.00,,,0.26,443.000000,,2013-04-10 16:02:00,
2013-04-10 10:12:00,30.0,17.0,-100.00,NNE,18,1.0,3.0,58,0.00,,,0.26,443.000000,,2013-04-10 16:12:00,
2013-04-10 10:22:00,32.0,17.0,-100.00,NNE,19,2.0,4.0,53,0.00,,,0.26,682.000000,,2013-04-10 16:22:00,
2013-04-10 10:43:00,32.0,17.0,-100.00,NNE,19,2.0,4.0,53,0.00,,,0.26,682.000000,,2013-04-10 16:43:00,
2013-04-10 10:53:00,32.0,17.0,-100.00,NNE,19,2.0,4.0,53,0.00,,,0.26,682.000000,,2013-04-10 16:53:00,
2013-04-10 11:02:00,32.0,17.0,-100.00,NNE,19,2.0,4.0,53,0.00,,,0.26,682.000000,,2013-04-10 17:02:00,
2013-04-10 11:12:00,32.0,17.0,-100.00,NNE,19,2.0,4.0,53,0.00,,,0.26,682.000000,,2013-04-10 17:12:00,
2013-04-10 11:43:00,41.0,20.0,-100.00,NNE,21,0.0,5.0,42,0.00,,,0.17,962.000000,,2013-04-10 17:43:00,
2013-04-10 11:52:00,41.0,20.0,-100.00,NNE,21,0.0,5.0,42,0.00,,,0.17,962.000000,,2013-04-10 17:52:00,
2013-04-10 12:43:00,40.0,21.0,-100.00,ESE,109,2.0,5.0,46,-99.99,,,0.05,1103.000000,,2013-04-10 18:43:00,
2013-04-10 12:52:00,40.0,21.0,-100.00,ESE,109,2.0,5.0,46,-99.99,,,0.05,1103.000000,,2013-04-10 18:52:00,
2013-04-10 13:02:00,40.0,21.0,-100.00,ESE,109,2.0,5.0,46,-99.99,,,0.05,1103.000000,,2013-04-10 19:02:00,
2013-04-10 13:12:00,40.0,21.0,-100.00,ESE,109,2.0,5.0,46,-99.99,,,0.05,1103.000000,,2013-04-10 19:12:00,
2013-04-10 13:21:00,40.0,21.0,-100.00,ESE,109,2.0,5.0,46,-99.99,,,0.05,1103.000000,,2013-04-10 19:21:00,
2013-04-10 13:22:00,42.0,21.0,-100.00,East,95,2.0,5.0,43,0.00,,,0.00,1165.000000,,2013-04-10 19:22:00,
2013-04-10 13:42:00,42.0,21.0,-100.00,East,95,2.0,5.0,43,0.00,,,0.00,1165.000000,,2013-04-10 19:42:00,
2013-04-10 13:53:00,42.0,21.0,-100.00,East,95,2.0,5.0,43,0.00,,,0.00,1165.000000,,2013-04-10 19:53:00,
2013-04-10 14:02:00,42.0,21.0,-100.00,East,95,2.0,5.0,43,0.00,,,0.00,1165.000000,,2013-04-10 20:02:00,
2013-04-10 14:12:00,42.0,21.0,-100.00,East,95,2.0,5.0,43,0.00,,,0.00,1165.000000,,2013-04-10 20:12:00,
2013-04-10 14:22:00,48.0,25.0,-100.00,NE,36,0.0,4.0,40,0.00,,,0.00,1156.000000,,2013-04-10 20:22:00,
2013-04-10 14:52:00,48.0,25.0,-100.00,NE,36,0.0,4.0,40,0.00,,,0.00,1156.000000,,2013-04-10 20:52:00,
2013-04-10 15:02:00,48.0,25.0,-100.00,NE,36,0.0,4.0,40,0.00,,,0.00,1156.000000,,2013-04-10 21:02:00,
2013-04-10 15:22:00,44.0,26.0,-100.00,SE,140,4.0,6.0,49,0.00,,,0.00,1075.000000,,2013-04-10 21:22:00,
2013-04-10 15:43:00,44.0,26.0,-100.00,SE,140,4.0,6.0,49,0.00,,,0.00,1075.000000,,2013-04-10 21:43:00,
2013-04-10 15:53:00,44.0,26.0,-100.00,SE,140,4.0,6.0,49,0.00,,,0.00,1075.000000,,2013-04-10 21:53:00,
2013-04-10 16:03:00,44.0,26.0,-100.00,SE,140,4.0,6.0,49,0.00,,,0.00,1075.000000,,2013-04-10 22:03:00,
2013-04-10 16:12:00,44.0,26.0,-100.00,SE,140,4.0,6.0,49,0.00,,,0.00,1075.000000,,2013-04-10 22:12:00,
2013-04-10 16:22:00,40.0,25.0,-100.00,SE,131,9.0,12.0,55,0.00,,,0.00,922.000000,,2013-04-10 22:22:00,
2013-04-10 16:53:00,40.0,25.0,-100.00,SE,131,9.0,12.0,55,0.00,,,0.00,922.000000,,2013-04-10 22:53:00,
2013-04-10 17:02:00,40.0,25.0,-100.00,SE,131,9.0,12.0,55,0.00,,,0.00,922.000000,,2013-04-10 23:02:00,
2013-04-10 17:12:00,40.0,25.0,-100.00,SE,131,9.0,12.0,55,0.00,,,0.00,922.000000,,2013-04-10 23:12:00,
2013-04-10 17:43:00,42.0,27.0,-100.00,ESE,123,8.0,11.0,54,0.00,,,0.00,700.000000,,2013-04-10 23:43:00,
2013-04-10 17:52:00,42.0,27.0,-100.00,ESE,123,8.0,11.0,54,0.00,,,0.00,700.000000,,2013-04-10 23:52:00,
2013-04-10 18:02:00,42.0,27.0,-100.00,ESE,123,8.0,11.0,54,0.00,,,0.00,700.000000,,2013-04-11 00:02:00,
2013-04-10 18:12:00,42.0,27.0,-100.00,ESE,123,8.0,11.0,54,0.00,,,0.00,700.000000,,2013-04-11 00:12:00,
2013-04-10 18:21:00,42.0,27.0,-100.00,ESE,123,8.0,11.0,54,0.00,,,0.00,700.000000,,2013-04-11 00:21:00,
2013-04-10 18:42:00,40.0,26.0,-100.00,SE,140,8.0,12.0,57,0.00,,,0.00,421.000000,,2013-04-11 00:42:00,
2013-04-10 18:53:00,40.0,26.0,-100.00,SE,140,8.0,12.0,57,0.00,,,0.00,421.000000,,2013-04-11 00:53:00,
2013-04-10 19:02:00,40.0,26.0,-100.00,SE,140,8.0,12.0,57,0.00,,,0.00,421.000000,,2013-04-11 01:02:00,
2013-04-10 19:12:00,40.0,26.0,-100.00,SE,140,8.0,12.0,57,0.00,,,0.00,421.000000,,2013-04-11 01:12:00,
2013-04-10 19:21:00,40.0,26.0,-100.00,SE,140,8.0,12.0,57,0.00,,,0.00,421.000000,,2013-04-11 01:21:00,
2013-04-10 19:22:00,39.0,30.0,-100.00,SW,225,4.0,11.0,69,0.00,,,0.00,121.000000,,2013-04-11 01:22:00,
2013-04-10 19:52:00,39.0,30.0,-100.00,SW,225,4.0,11.0,69,0.00,,,0.00,121.000000,,2013-04-11 01:52:00,
2013-04-10 20:02:00,39.0,30.0,-100.00,SW,225,4.0,11.0,69,0.00,,,0.00,121.000000,,2013-04-11 02:02:00,
2013-04-10 20:12:00,39.0,30.0,-100.00,SW,225,4.0,11.0,69,0.00,,,0.00,121.000000,,2013-04-11 02:12:00,
2013-04-10 20:52:00,35.0,27.0,-100.00,SSW,201,4.0,7.0,72,0.00,,,0.00,20.000000,,2013-04-11 02:52:00,
2013-04-10 21:02:00,35.0,27.0,-100.00,SSW,201,4.0,7.0,72,0.00,,,0.00,20.000000,,2013-04-11 03:02:00,
2013-04-10 21:12:00,35.0,27.0,-100.00,SSW,201,4.0,7.0,72,0.00,,,0.00,20.000000,,2013-04-11 03:12:00,
2013-04-10 21:21:00,35.0,27.0,-100.00,SSW,201,4.0,7.0,72,0.00,,,0.00,20.000000,,2013-04-11 03:21:00,
2013-04-10 21:22:00,34.0,28.0,-100.00,SSE,161,1.0,5.0,77,0.00,,,0.00,0.000000,,2013-04-11 03:22:00,
2013-04-10 21:53:00,34.0,28.0,-100.00,SSE,161,1.0,5.0,77,0.00,,,0.00,0.000000,,2013-04-11 03:53:00,
2013-04-10 22:03:00,34.0,28.0,-100.00,SSE,161,1.0,5.0,77,0.00,,,0.00,0.000000,,2013-04-11 04:03:00,
2013-04-10 22:12:00,34.0,28.0,-100.00,SSE,161,1.0,5.0,77,0.00,,,0.00,0.000000,,2013-04-11 04:12:00,
2013-04-10 22:22:00,37.0,28.0,-100.00,NNW,328,3.0,9.0,71,0.00,,,0.00,0.000000,,2013-04-11 04:22:00,
2013-04-10 22:43:00,37.0,28.0,-100.00,NNW,328,3.0,9.0,71,0.00,,,0.00,0.000000,,2013-04-11 04:43:00,
2013-04-10 22:53:00,37.0,28.0,-100.00,NNW,328,3.0,9.0,71,0.00,,,0.00,0.000000,,2013-04-11 04:53:00,
2013-04-10 23:02:00,37.0,28.0,-100.00,NNW,328,3.0,9.0,71,0.00,,,0.00,0.000000,,2013-04-11 05:02:00,
2013-04-10 23:12:00,37.0,28.0,-100.00,NNW,328,3.0,9.0,71,0.00,,,0.00,0.000000,,2013-04-11 05:12:00,
2013-04-10 23:22:00,32.0,28.0,-100.00,SW,224,3.0,9.0,85,0.00,,,-99.99,0.000000,,2013-04-11 05:22:00,
2013-04-10 23:52:00,32.0,28.0,-100.00,SW,224,3.0,9.0,85,0.00,,,-99.99,0.000000,,2013-04-11 05:52:00,